Regional Weather Roundup
Issued by NWS Kansas City/Pleasant Hill, MO

Home | Current Version | Previous Version | Graphics & Text | Print | Product List | Glossary Off
Versions: 1 2 3 4 5 6 7 8 9 10 11 12 13 14 15 16 17 18 19 20 21 22 23 24 25 26 27

000
ASUS43 KEAX 221410
RWREAX

WEATHER ROUNDUP FOR EASTERN KANSAS AND NORTHWEST MISSOURI
NATIONAL WEATHER SERVICE KANSAS CITY/PLEASANT HILL MO
900 AM CDT THU JUN 22 2017

KSZ040-057-103>105-MOZ028-029-037-043-221500-
...KANSAS CITY METROPOLITAN AREA...

CITY           SKY/WX    TMP DP  RH WIND       PRES   REMARKS
K.C. INTL      MOSUNNY   77  68  73 S18       29.77F
K.C. DOWNTOWN  SUNNY     80  68  66 S10       29.76F
LEES SUMMIT    SUNNY     77  69  76 S15       29.78F
OLATHE - IXD   SUNNY     76  67  73 S15G21    29.79F
OLATHE - OJC   SUNNY     75  68  78 S15G22    29.78F
LAWRENCE       SUNNY     77  68  73 S8        29.77S

$$

MOZ001>008-011>017-020>025-030>033-038>040-044>046-053-054-221500-
...NORTHERN AND CENTRAL MISSOURI...

CITY           SKY/WX    TMP DP  RH WIND       PRES   REMARKS
ST. JOSEPH     MOSUNNY   78  68  71 S17       29.75S
MOSBY          MOSUNNY   77  66  69 S9        29.77F
WARRENSBURG    SUNNY     77  68  73 S10G17    29.80F
WHITEMAN AFB   MOSUNNY   77  75  96 S14       29.79F
CLINTON        SUNNY     77  68  73 S12       29.82F
SEDALIA        SUNNY     79  72  79 S14       29.83F
WARSAW         NOT AVBL
CHILLICOTHE      N/A     78  69  73 S14G20    29.78F
KIRKSVILLE     MOSUNNY   78  69  73 S15       29.80F

$$

MOZ041-047>049-056>058-063>065-088>090-097-221500-
...EASTERN AND SOUTHERN MISSOURI...

CITY           SKY/WX    TMP DP  RH WIND       PRES   REMARKS
ST. LOUIS INTL PTSUNNY   79  69  71 S9        29.89S
SPIRIT OF STL  CLOUDY    78  72  81 S7        29.87S
COLUMBIA       MOSUNNY   76  71  85 S9        29.85F
JEFFERSON CITY SUNNY     77  69  76 SE8       29.84F
ROLLA          CLOUDY    74  71  91 S12       29.87S
OSAGE BEACH    CLOUDY    74  70  87 S8        29.86S
SPRINGFIELD    CLOUDY    75  71  87 S10       29.84F
BRANSON        CLOUDY    72  72 100 SE8       29.86S FOG
JOPLIN         PTSUNNY   79  72  79 SE13      29.81F
WEST PLAINS    CLOUDY    73  71  93 SE9       29.89S FOG

$$

IAZ060-094-KSZ022-034>040-054-083-096-NEZ052-066-093-221500-
...KANSAS...SOUTHEAST NEBRASKA AND IOWA...

CITY           SKY/WX    TMP DP  RH WIND       PRES   REMARKS
TOPEKA         SUNNY     77  69  76 S12       29.75F
MANHATTAN      CLOUDY    80  65  59 S14       29.73S
EMPORIA        SUNNY     75  68  78 S12       29.79R
WICHITA        MOSUNNY   76  67  73 S15       29.77S
OMAHA          CLOUDY    78  60  53 S15       29.67S
LINCOLN        MOSUNNY   78  63  59 S13       29.66F
FALLS CITY     CLOUDY    75  64  68 S12       29.72S
LAMONI         CLOUDY    77  66  68 S15G24    29.76R
DES MOINES     LGT RAIN  76  63  64 SW15G24   29.70F

$$





USA.gov is the U.S. government's official web portal to all federal, state and local government web resources and services.